When you browse on this site, cookies collect data to enhance your experience and personalize the content and advertising you see.
Visit our Privacy Policy to learn more. By continuing to use the site, you agree to this use of cookies and data.
  • In Schweiz
  • Länderverzeichnis
  • Für 7 Tage
  • Wassertemperatur
  • Wetterkarte
  • Widgets
  • user-avatar
    Anmelden

    Stündliche Wetter Rottenburg

    Heute, 3 Juni, Mittwoch

    Zeit Temperatur Niederschläge Wind Luftdruck Luftfeuchtigkeit
    00:00 +15°C° 0 mm 1 m/S 724 mmHg 81%
    01:00 +14°C° 0 mm 1 m/S 724 mmHg 81%
    02:00 +14°C° 0 mm 1 m/S 723 mmHg 81%
    03:00 +14°C° 0 mm 1 m/S 723 mmHg 81%
    04:00 +13°C° 0 mm 1 m/S 722 mmHg 80%
    05:00 +15°C° 0 mm 1 m/S 722 mmHg 77%
    06:00 +16°C° 0 mm 1 m/S 722 mmHg 74%
    07:00 +18°C° 0 mm 1 m/S 722 mmHg 71%
    08:00 +20°C° 0.1 mm 1 m/S 722 mmHg 65%
    09:00 +22°C° 0.1 mm 1 m/S 721 mmHg 60%
    10:00 +24°C° 0.1 mm 1 m/S 721 mmHg 54%
    11:00 +24°C° 0.2 mm 1 m/S 721 mmHg 52%
    12:00 +25°C° 0.2 mm 1 m/S 720 mmHg 50%
    13:00 +25°C° 0.2 mm 1 m/S 720 mmHg 48%
    14:00 +25°C° 0.1 mm 1 m/S 719 mmHg 49%
    15:00 +25°C° 0.1 mm 1 m/S 719 mmHg 50%
    16:00 +25°C° 0.1 mm 1 m/S 718 mmHg 51%
    17:00 +24°C° 0.1 mm 1 m/S 718 mmHg 59%
    18:00 +23°C° 0.1 mm 1 m/S 717 mmHg 66%
    19:00 +22°C° 0.1 mm 1 m/S 716 mmHg 74%
    20:00 +20°C° 0.3 mm 1 m/S 716 mmHg 77%
    21:00 +19°C° 0.3 mm 1 m/S 716 mmHg 80%
    22:00 +16°C° 0.3 mm 1 m/S 716 mmHg 83%
    23:00 +16°C° 0.6 mm 2 m/S 716 mmHg 87%

    Morgen, 4 Juni, Donnerstag

    Zeit Temperatur Niederschläge Wind Luftdruck Luftfeuchtigkeit
    00:00 +16°C° 0.6 mm 3 m/S 716 mmHg 90%
    01:00 +15°C° 0.6 mm 4 m/S 716 mmHg 93%
    02:00 +14°C° 1 mm 3 m/S 715 mmHg 93%
    03:00 +14°C° 1 mm 3 m/S 715 mmHg 94%
    04:00 +14°C° 1 mm 3 m/S 715 mmHg 94%
    05:00 +14°C° 0.1 mm 3 m/S 714 mmHg 94%
    06:00 +16°C° 0.1 mm 2 m/S 714 mmHg 93%
    07:00 +16°C° 0.1 mm 2 m/S 714 mmHg 92%
    08:00 +17°C° 0.4 mm 2 m/S 714 mmHg 88%
    09:00 +18°C° 0.4 mm 2 m/S 714 mmHg 83%
    10:00 +19°C° 0.4 mm 2 m/S 714 mmHg 79%
    11:00 +19°C° 0.8 mm 3 m/S 713 mmHg 81%
    12:00 +18°C° 0.8 mm 3 m/S 713 mmHg 82%
    13:00 +18°C° 0.8 mm 3 m/S 713 mmHg 84%
    14:00 +18°C° 0.8 mm 3 m/S 713 mmHg 86%
    15:00 +17°C° 0.8 mm 3 m/S 713 mmHg 87%
    16:00 +17°C° 0.8 mm 3 m/S 713 mmHg 89%
    17:00 +16°C° 1.1 mm 3 m/S 713 mmHg 90%
    18:00 +14°C° 1.1 mm 3 m/S 713 mmHg 92%
    19:00 +13°C° 1.1 mm 3 m/S 713 mmHg 93%
    20:00 +13°C° 0.5 mm 3 m/S 714 mmHg 94%
    21:00 +13°C° 0.5 mm 2 m/S 714 mmHg 94%
    22:00 +13°C° 0.5 mm 2 m/S 714 mmHg 94%
    23:00 +13°C° 0.2 mm 2 m/S 714 mmHg 94%

    übermorgen, 5 Juni, Freitag

    Zeit Temperatur Niederschläge Wind Luftdruck Luftfeuchtigkeit
    00:00 +12°C° 0.2 mm 2 m/S 715 mmHg 95%
    01:00 +12°C° 0.2 mm 2 m/S 715 mmHg 95%
    02:00 +10°C° 0.1 mm 2 m/S 715 mmHg 95%
    03:00 +11°C° 0.1 mm 1 m/S 715 mmHg 95%
    04:00 +11°C° 0.1 mm 1 m/S 715 mmHg 95%
    05:00 +11°C° 0.1 mm 1 m/S 716 mmHg 93%
    06:00 +10°C° 0.1 mm 2 m/S 716 mmHg 91%
    07:00 +12°C° 0.1 mm 2 m/S 716 mmHg 89%
    08:00 +11°C° 0.2 mm 3 m/S 716 mmHg 87%
    09:00 +12°C° 0.2 mm 3 m/S 717 mmHg 84%
    10:00 +12°C° 0.2 mm 3 m/S 717 mmHg 82%
    11:00 +13°C° 0.3 mm 4 m/S 717 mmHg 77%
    12:00 +14°C° 0.3 mm 5 m/S 717 mmHg 72%
    13:00 +15°C° 0.3 mm 6 m/S 717 mmHg 68%
    14:00 +15°C° 0.2 mm 7 m/S 717 mmHg 68%
    15:00 +15°C° 0.2 mm 7 m/S 717 mmHg 69%
    16:00 +15°C° 0.2 mm 8 m/S 717 mmHg 70%
    17:00 +14°C° 0.2 mm 7 m/S 717 mmHg 74%
    18:00 +12°C° 0.2 mm 7 m/S 717 mmHg 78%
    19:00 +11°C° 0.2 mm 7 m/S 717 mmHg 82%
    20:00 +11°C° 0.5 mm 7 m/S 718 mmHg 83%
    21:00 +11°C° 0.5 mm 7 m/S 718 mmHg 84%
    22:00 +11°C° 0.5 mm 7 m/S 718 mmHg 85%
    23:00 +10°C° 0.4 mm 6 m/S 718 mmHg 88%

    6 Juni, Samstag

    Zeit Temperatur Niederschläge Wind Luftdruck Luftfeuchtigkeit
    00:00 +10°C° 0.4 mm 6 m/S 718 mmHg 91%
    01:00 +10°C° 0.4 mm 5 m/S 718 mmHg 94%
    02:00 +10°C° 0.6 mm 5 m/S 718 mmHg 94%
    03:00 +12°C° 0.6 mm 5 m/S 719 mmHg 95%
    04:00 +12°C° 0.6 mm 5 m/S 719 mmHg 95%
    05:00 +12°C° 0.4 mm 5 m/S 719 mmHg 94%
    06:00 +12°C° 0.4 mm 5 m/S 719 mmHg 94%
    07:00 +12°C° 0.4 mm 5 m/S 719 mmHg 93%
    08:00 +13°C° 0.1 mm 5 m/S 719 mmHg 90%
    09:00 +13°C° 0.1 mm 6 m/S 719 mmHg 87%
    10:00 +14°C° 0.1 mm 6 m/S 719 mmHg 85%
    11:00 +14°C° 0.1 mm 6 m/S 719 mmHg 82%
    12:00 +15°C° 0.1 mm 6 m/S 719 mmHg 79%
    13:00 +15°C° 0.1 mm 6 m/S 719 mmHg 76%
    14:00 +16°C° 0.1 mm 6 m/S 719 mmHg 75%
    15:00 +16°C° 0.1 mm 6 m/S 719 mmHg 74%
    16:00 +16°C° 0.1 mm 6 m/S 720 mmHg 73%
    17:00 +16°C° 0.1 mm 5 m/S 720 mmHg 77%
    18:00 +15°C° 0.1 mm 4 m/S 720 mmHg 80%
    19:00 +15°C° 0.1 mm 2 m/S 720 mmHg 83%
    20:00 +15°C° 0.1 mm 2 m/S 720 mmHg 86%
    21:00 +14°C° 0.1 mm 2 m/S 720 mmHg 89%
    22:00 +13°C° 0.1 mm 2 m/S 721 mmHg 91%
    23:00 +13°C° 0.1 mm 2 m/S 720 mmHg 91%

    7 Juni, Sonntag

    Zeit Temperatur Niederschläge Wind Luftdruck Luftfeuchtigkeit
    00:00 +13°C° 0.1 mm 2 m/S 720 mmHg 91%
    01:00 +13°C° 0.1 mm 2 m/S 720 mmHg 91%
    02:00 +13°C° 0.6 mm 2 m/S 720 mmHg 93%
    03:00 +13°C° 0.6 mm 2 m/S 720 mmHg 95%
    04:00 +13°C° 0.6 mm 1 m/S 720 mmHg 97%
    05:00 +13°C° 0.5 mm 1 m/S 719 mmHg 97%
    06:00 +14°C° 0.5 mm 1 m/S 719 mmHg 97%
    07:00 +14°C° 0.5 mm 1 m/S 719 mmHg 97%
    08:00 +14°C° 0.8 mm 2 m/S 720 mmHg 96%
    09:00 +14°C° 0.8 mm 2 m/S 720 mmHg 96%
    10:00 +14°C° 0.8 mm 2 m/S 720 mmHg 95%
    11:00 +12°C° 2.3 mm 3 m/S 721 mmHg 95%
    12:00 +11°C° 2.3 mm 3 m/S 721 mmHg 95%
    13:00 +10°C° 2.3 mm 4 m/S 722 mmHg 95%
    14:00 +10°C° 0.5 mm 3 m/S 722 mmHg 92%
    15:00 +11°C° 0.5 mm 3 m/S 723 mmHg 88%
    16:00 +11°C° 0.5 mm 3 m/S 723 mmHg 84%
    17:00 +12°C° 0.1 mm 2 m/S 724 mmHg 83%
    18:00 +12°C° 0.1 mm 2 m/S 724 mmHg 81%
    19:00 +13°C° 0.1 mm 1 m/S 724 mmHg 80%
    20:00 +11°C° 0 mm 1 m/S 724 mmHg 83%
    21:00 +10°C° 0 mm 1 m/S 725 mmHg 86%
    22:00 +7°C° 0 mm 2 m/S 725 mmHg 89%
    23:00 +7°C° 0 mm 2 m/S 725 mmHg 90%

    8 Juni, Montag

    Zeit Temperatur Niederschläge Wind Luftdruck Luftfeuchtigkeit
    00:00 +7°C° 0 mm 2 m/S 725 mmHg 91%
    01:00 +6°C° 0 mm 2 m/S 724 mmHg 92%
    02:00 +6°C° 0 mm 2 m/S 724 mmHg 91%
    03:00 +7°C° 0 mm 1 m/S 724 mmHg 89%
    04:00 +7°C° 0 mm 1 m/S 724 mmHg 88%
    05:00 +8°C° 0 mm 1 m/S 724 mmHg 84%
    06:00 +10°C° 0 mm 1 m/S 725 mmHg 80%
    07:00 +12°C° 0 mm 1 m/S 725 mmHg 77%
    08:00 +14°C° 0 mm 1 m/S 725 mmHg 69%
    09:00 +15°C° 0 mm 2 m/S 725 mmHg 61%
    10:00 +17°C° 0 mm 2 m/S 725 mmHg 53%
    11:00 +17°C° 0.1 mm 2 m/S 725 mmHg 54%
    12:00 +18°C° 0.1 mm 2 m/S 725 mmHg 55%
    13:00 +18°C° 0.1 mm 2 m/S 725 mmHg 56%
    14:00 +18°C° 0.1 mm 2 m/S 725 mmHg 58%
    15:00 +18°C° 0.1 mm 2 m/S 725 mmHg 59%
    16:00 +18°C° 0.1 mm 2 m/S 725 mmHg 60%
    17:00 +17°C° 0.3 mm 2 m/S 725 mmHg 67%
    18:00 +16°C° 0.3 mm 2 m/S 725 mmHg 73%
    19:00 +15°C° 0.3 mm 2 m/S 725 mmHg 79%
    20:00 +14°C° 0 mm 2 m/S 725 mmHg 82%
    21:00 +12°C° 0 mm 2 m/S 726 mmHg 85%
    22:00 +9°C° 0 mm 2 m/S 726 mmHg 88%
    23:00 +9°C° 0 mm 2 m/S 726 mmHg 88%
    Mehr zeigen